Regional Weather Roundup
Issued by NWS

Home | Current Version | Previous Version | Graphics & Text | Print | Product List | Glossary On
Versions: 1 2 3 4 5 6 7 8 9 10 11 12 13 14 15 16 17 18 19 20 21 22 23 24 25 26 27 28 29 30 31 32 33 34 35 36 37 38 39 40 41 42 43 44 45 46 47 48 49 50
000
ASUS45 KPSR 020700
RWRAZ

PRELIMINARY ARIZONA REGIONAL HOURLY WEATHER ROUNDUP
NATIONAL WEATHER SERVICE PHOENIX AZ
1200 AM MST SAT AUG 02 2014

NOTE: FAIR INDICATES FEW OR NO CLOUDS BELOW 12,000 FEET WITH NO
SIGNIFICANT WEATHER AND/OR OBSTRUCTIONS TO VISIBILITY.

AZZ001>003-036-020800-
NORTHWEST ARIZONA

CITY           SKY/WX    TMP DP  RH WIND       PRES   REMARKS
KINGMAN        CLOUDY    84  47  27 VRB3      30.05F
$$

AZZ004>008-015-016-018-020800-
NORTH CENTRAL ARIZONA

CITY           SKY/WX    TMP DP  RH WIND       PRES   REMARKS
GRAND CANYON   PTCLDY    56  48  74 NE5       30.30F
WILLIAMS       PTCLDY    59  48  67 SE3       30.36F
PRESCOTT       CLOUDY    68  59  73 S5        30.19F
FLAGSTAFF      MOCLDY    56  49  77 CALM      30.34R
PAYSON         CLOUDY    66  61  82 CALM      30.24F
PAGE           PTCLDY    81  46  29 CALM      30.09R
$$

AZZ009>014-017-020800-
NORTHEAST ARIZONA

CITY           SKY/WX    TMP DP  RH WIND       PRES   REMARKS
WINSLOW        NOT AVBL
SAINT JOHNS    CLOUDY    66  59  78 E5        30.23S
WINDOW ROCK    MOCLDY    66  51  58 S6        30.30F
$$

AZZ023-020800-
GREATER PHOENIX AREA

CITY           SKY/WX    TMP DP  RH WIND       PRES   REMARKS
PHOENIX        CLOUDY    85  64  49 CALM      29.91R
DEER VALLEY    CLOUDY    81  66  60 E6        29.93S
SCOTTSDALE     CLOUDY    85  64  49 CALM      29.95S
MESA-GATEWAY   MOCLDY    88  61  40 S6        29.97S
$$

AZZ027-028-020800-
SOUTHWEST MARICOPA COUNTY AND PINAL COUNTY

CITY           SKY/WX    TMP DP  RH WIND       PRES   REMARKS
CASA GRANDE    CLOUDY    84  61  45 CALM      29.97R
$$

AZZ503-504-507>509-020800-
SOUTHEAST ARIZONA

CITY           SKY/WX    TMP DP  RH WIND       PRES   REMARKS
TUCSON         LGT RAIN  75  67  76 SE18      30.08R
DAVIS-MONTHAN  LGT RAIN  73  67  84 SE21      30.06R
NOGALES        LGT RAIN  66  64  93 E7        30.18S
SIERRA VISTA   RAIN      65  62  90 S3        30.24R FOG
SAFFORD        LGT RAIN  71  66  84 SE14      30.10S
$$

AZZ020-021-025-026-031-020800-
SOUTHWEST ARIZONA

CITY           SKY/WX    TMP DP  RH WIND       PRES   REMARKS
YUMA           CLOUDY    96  59  29 S6        29.80R
$$

CAZ031-033-041-043-047-048-061-020800-
SOUTHERN CALIFORNIA

CITY           SKY/WX    TMP DP  RH WIND       PRES   REMARKS
DOWNTOWN L.A.  PTCLDY    67  62  84 CALM      29.90S
L.A. AIRPORT   CLOUDY    64  62  93 W3        29.91S FOG
SAN DIEGO      MOCLDY    71  64  78 W5        29.91F
BURBANK        CLEAR     72  62  71 SE3       29.90F
ONTARIO        CLEAR     74  63  68 SW7       29.91S
RIVERSIDE      CLEAR     75  63  66 W3        29.91S
PALM SPRINGS   CLEAR     97  55  24 NW9       29.81R
EL CENTRO NAS  CLOUDY    96  59  29 S7        29.75S
IMPERIAL       MOCLDY    97  59  28 S6        29.75S
BLYTHE           N/A    N/A N/A N/A MISG      29.81R
$$

NVZ020-UTZ003-020800-
SOUTHERN NEVADA-UTAH

CITY           SKY/WX    TMP DP  RH WIND       PRES   REMARKS
LAS VEGAS      NOT AVBL
SALT LAKE CITY CLEAR     73  52  47 SE5       30.10R
$$

NMZ009-TXZ055-020800-
NEW MEXICO-WEST TEXAS

CITY           SKY/WX    TMP DP  RH WIND       PRES   REMARKS
ALBUQUERQUE    RAIN      62  57  83 E24G37    30.28S
EL PASO        CLOUDY    71  61  70 E6        30.15F
$$


........................KEY........................
SKY/WX - SKY CONDITION/WEATHER
TMP    - TEMPERATURE IN FAHRENHEIT
DP     - DEW POINT IN FAHRENHEIT
RH     - RELATIVE HUMIDITY IN PERCENT
WIND   - DIRECTION AND SPEED IN MILES PER HOUR (MPH)
VRB    - VARIABLE WIND DIRECTION
PRES   - MEAN SEA LEVEL PRESSURE IN INCHES OF MERCURY
         F - FALLING PRESSURE   R - RISING PRESSURE
         S - STEADY PRESSURE
VSB    - VISIBILITY IN MILES
HX     - HEAT INDEX IN FAHRENHEIT
WCI    - WIND CHILL INDEX IN FAHRENHEIT
TC     - TEMPERATURE IN CELSIUS WHICH IS ALSO KNOWN AS
         TEMPERATURE IN CENTIGRADE
AFB    - AIR FORCE BASE
         LUKE AFB IS LUKE AIR FORCE BASE
         DAVIS-MONTHAN IS DAVIS-MONTHAN AIR FORCE BASE
NAS    - NAVAL AIR STATION
         EL CENTRO NAS IS EL CENTRO NAVAL AIR STATION
N/A    - NOT AVAILABLE



USA.gov is the U.S. government's official web portal to all federal, state and local government web resources and services.